QPF
0.00 0.00 0.00 0.00 0.00 0.00 0.00 0.00 0.00 0.00 0.00 0.00 0.00 0.00 0.00 0.00 0.00 0.00 0.00 0.00 0.00 0.00 0.00 0.00 0.00 0.00 0.01 0.02 0.02 0.07 0.05 0.02 0.01 0.00 0.00 0.00 0.00 0.00 0.00 0.00 0.00 0.00 0.00
0.00 0.00 0.00 0.00 0.00 0.00 0.00 0.00 0.00 0.00 0.00 0.00 0.00 0.00 0.00 0.00 0.00 0.00 0.00 0.00 0.00 0.00 0.00 0.00 0.00 0.00 0.00 0.01 0.01 0.03 0.04 0.04 0.04 0.01 0.01 0.00 0.00 0.00 0.00 0.00 0.00 0.00 0.00
0.00 0.00 0.00 0.00 0.00 0.00 0.00 0.00 0.00 0.00 0.00 0.00 0.00 0.00 0.00 0.00 0.00 0.00 0.00 0.00 0.00 0.00 0.00 0.00 0.00 0.00 0.00 0.01 0.01 0.01 0.02 0.03 0.02 0.02 0.01 0.00 0.00 0.00 0.00 0.00 0.00 0.00 0.00
0.00 0.00 0.00 0.00 0.00 0.00 0.00 0.00 0.00 0.00 0.00 0.00 0.00 0.00 0.00 0.00 0.00 0.00 0.00 0.00 0.00 0.00 0.00 0.00 0.00 0.00 0.00 0.01 0.01 0.01 0.02 0.03 0.03 0.02 0.01 0.01 0.00 0.00 0.00 0.00 0.00 0.00 0.00
0.00 0.00 0.00 0.00 0.00 0.00 0.00 0.00 0.00 0.00 0.00 0.00 0.00 0.00 0.00 0.00 0.00 0.00 0.00 0.00 0.00 0.00 0.00 0.00 0.00 0.00 0.00 0.01 0.02 0.01 0.02 0.02 0.02 0.02 0.01 0.02 0.02 0.01 0.00 0.00 0.00 0.00 0.00
0.00 0.00 0.00 0.00 0.00 0.00 0.00 0.00 0.00 0.00 0.00 0.00 0.00 0.00 0.00 0.00 0.00 0.00 0.00 0.00 0.00 0.00 0.00 0.00 0.00 0.00 0.00 0.00 0.02 0.03 0.01 0.01 0.02 0.02 0.01 0.01 0.03 0.03 0.02 0.01 0.00 0.00 0.00
0.00 0.00 0.00 0.00 0.00 0.00 0.00 0.00 0.00 0.00 0.00 0.00 0.00 0.00 0.00 0.00 0.00 0.00 0.00 0.00 0.00 0.00 0.00 0.00 0.00 0.00 0.00 0.00 0.00 0.03 0.02 0.02 0.02 0.02 0.01 0.01 0.00 0.01 0.01 0.01 0.01 0.00 0.00
0.00 0.00 0.00 0.00 0.00 0.00 0.01 0.01 0.00 0.00 0.00 0.00 0.00 0.00 0.00 0.00 0.00 0.00 0.00 0.00 0.00 0.00 0.00 0.00 0.00 0.00 0.00 0.00 0.00 0.00 0.02 0.02 0.02 0.02 0.01 0.01 0.00 0.00 0.02 0.02 0.01 0.01 0.00
0.00 0.00 0.00 0.00 0.00 0.00 0.01 0.01 0.00 0.00 0.00 0.00 0.00 0.00 0.00 0.00 0.00 0.00 0.00 0.00 0.00 0.00 0.00 0.00 0.00 0.00 0.00 0.00 0.00 0.00 0.00 0.01 0.01 0.01 0.01 0.00 0.00 0.00 0.00 0.01 0.03 0.03 0.03
0.00 0.00 0.00 0.00 0.00 0.00 0.00 0.00 0.00 0.00 0.00 0.00 0.00 0.00 0.00 0.00 0.00 0.00 0.00 0.01 0.01 0.02 0.01 0.01 0.00 0.00 0.00 0.00 0.00 0.00 0.01 0.01 0.01 0.01 0.01 0.00 0.00 0.00 0.00 0.00 0.00 0.01 0.02
0.00 0.00 0.00 0.00 0.00 0.00 0.00 0.00 0.00 0.00 0.00 0.00 0.00 0.00 0.00 0.00 0.00 0.00 0.00 0.01 0.01 0.00 0.03 0.03 0.02 0.00 0.00 0.00 0.00 0.00 0.01 0.01 0.01 0.00 0.01 0.02 0.01 0.01 0.01 0.00 0.00 0.01 0.02
0.00 0.00 0.00 0.00 0.00 0.00 0.00 0.00 0.01 0.01 0.00 0.00 0.00 0.00 0.00 0.00 0.00 0.00 0.00 0.02 0.02 0.00 0.01 0.03 0.03 0.02 0.01 0.00 0.00 0.00 0.00 0.01 0.01 0.00 0.00 0.00 0.01 0.03 0.05 0.07 0.09 0.10 0.13
0.00 0.00 0.00 0.00 0.00 0.00 0.01 0.01 0.02 0.04 0.07 0.07 0.04 0.01 0.00 0.00 0.00 0.00 0.00 0.01 0.03 0.02 0.02 0.01 0.02 0.01 0.01 0.00 0.00 0.00 0.00 0.00 0.01 0.01 0.00 0.00 0.00 0.00 0.01 0.02 0.05 0.08 0.09
0.00 0.00 0.00 0.00 0.00 0.01 0.02 0.02 0.05 0.10 0.15 0.14 0.10 0.05 0.01 0.00 0.00 0.00 0.00 0.00 0.00 0.00 0.01 0.00 0.00 0.00 0.01 0.01 0.00 0.00 0.00 0.00 0.00 0.01 0.00 0.00 0.00 0.00 0.00 0.00 0.00 0.01 0.01
0.00 0.00 0.00 0.00 0.00 0.00 0.00 0.01 0.03 0.07 0.17 0.26 0.16 0.08 0.02 0.01 0.00 0.00 0.03 0.02 0.01 0.00 0.04 0.04 0.02 0.01 0.02 0.01 0.01 0.00 0.00 0.00 0.00 0.01 0.01 0.00 0.00 0.00 0.00 0.00 0.00 0.00 0.01
0.00 0.00 0.00 0.00 0.00 0.00 0.00 0.00 0.00 0.01 0.09 0.33 0.18 0.09 0.06 0.02 0.00 0.00 0.03 0.06 0.06 0.06 0.05 0.04 0.03 0.03 0.02 0.01 0.00 0.00 0.00 0.00 0.01 0.01 0.01 0.02 0.01 0.00 0.00 0.00 0.00 0.00 0.01
0.00 0.00 0.00 0.00 0.00 0.00 0.00 0.00 0.00 0.00 0.02 0.17 0.18 0.09 0.05 0.02 0.00 0.00 0.00 0.00 0.01 0.00 0.00 0.00 0.00 0.00 0.00 0.00 0.00 0.00 0.01 0.02 0.04 0.04 0.03 0.03 0.04 0.04 0.03 0.01 0.01 0.01 0.01
0.00 0.00 0.00 0.00 0.00 0.00 0.00 0.00 0.00 0.00 0.00 0.04 0.08 0.11 0.20 0.18 0.10 0.04 0.02 0.02 0.02 0.02 0.02 0.04 0.06 0.08 0.06 0.04 0.03 0.02 0.03 0.05 0.02 0.01 0.01 0.04 0.09 0.04 0.02 0.02 0.04 0.05 0.05
0.00 0.00 0.00 0.00 0.00 0.00 0.00 0.00 0.00 0.00 0.00 0.00 0.02 0.06 0.09 0.21 0.29 0.27 0.27 0.31 0.35 0.34 0.39 0.38 0.32 0.26 0.26 0.17 0.14 0.19 0.12 0.10 0.10 0.09 0.03 0.06 0.09 0.07 0.05 0.05 0.10 0.18 0.18
0.00 0.00 0.00 0.00 0.00 0.00 0.00 0.00 0.00 0.00 0.00 0.00 0.00 0.00 0.02 0.04 0.07 0.14 0.15 0.16 0.20 0.17 0.18 0.16 0.20 0.24 0.22 0.21 0.24 0.18 0.21 0.15 0.16 0.18 0.07 0.12 0.07 0.08 0.07 0.05 0.05 0.07 0.07
0.00 0.00 0.00 0.00 0.00 0.00 0.00 0.00 0.00 0.00 0.00 0.00 0.00 0.00 0.00 0.00 0.00 0.01 0.02 0.03 0.07 0.09 0.09 0.07 0.04 0.03 0.02 0.04 0.07 0.06 0.07 0.05 0.05 0.05 0.04 0.03 0.07 0.04 0.03 0.01 0.00 0.00 0.00
0.00 0.00 0.00 0.00 0.00 0.00 0.00 0.00 0.00 0.00 0.00 0.00 0.00 0.00 0.00 0.00 0.00 0.00 0.00 0.00 0.00 0.00 0.00 0.01 0.01 0.00 0.00 0.01 0.01 0.01 0.01 0.01 0.00 0.01 0.00 0.00 0.01 0.00 0.00 0.00 0.00 0.00 0.00
0.00 0.00 0.00 0.00 0.00 0.00 0.00 0.00 0.00 0.00 0.00 0.00 0.00 0.00 0.00 0.00 0.00 0.00 0.00 0.00 0.00 0.00 0.00 0.00 0.00 0.00 0.00 0.00 0.00 0.00 0.00 0.00 0.00 0.00 0.00 0.00 0.00 0.00 0.00 0.00 0.00 0.00 0.00
0.00 0.00 0.00 0.00 0.00 0.00 0.00 0.00 0.00 0.00 0.00 0.00 0.00 0.00 0.00 0.00 0.00 0.00 0.00 0.00 0.00 0.00 0.00 0.00 0.00 0.00 0.00 0.00 0.00 0.00 0.00 0.00 0.00 0.00 0.00 0.00 0.00 0.00 0.00 0.00 0.00 0.00 0.00
0.00 0.00 0.00 0.00 0.00 0.00 0.00 0.00 0.00 0.00 0.00 0.00 0.00 0.00 0.00 0.00 0.00 0.00 0.00 0.00 0.00 0.00 0.00 0.00 0.00 0.00 0.00 0.00 0.00 0.00 0.00 0.00 0.00 0.00 0.00 0.00 0.00 0.00 0.00 0.00 0.00 0.00 0.00
0.00 0.00 0.00 0.00 0.00 0.00 0.00 0.00 0.00 0.00 0.00 0.00 0.00 0.00 0.00 0.00 0.00 0.00 0.00 0.00 0.00 0.00 0.00 0.00 0.00 0.00 0.00 0.00 0.00 0.00 0.00 0.00 0.00 0.00 0.00 0.00 0.00 0.00 0.00 0.00 0.00 0.00 0.00
MSLP
1013.97 1013.72 1013.45 1013.39 1013.31 1013.13 1012.84 1012.48 1012.29 1012.13 1012.27 1012.54 1012.77 1012.87 1012.65 1012.67 1012.46 1012.28 1012.09 1011.97 1011.94 1012.01 1012.14 1012.54 1012.76 1013.06 1013.47 1013.67 1013.89 1014.48 1014.45 1014.76 1014.92 1015.63 1015.99 1016.24 1016.31 1016.54 1016.66 1016.85 1017.07 1017.19 1017.25
1014.79 1014.52 1014.19 1013.96 1013.74 1013.42 1013.15 1012.64 1012.00 1011.57 1011.54 1011.76 1011.93 1012.20 1012.03 1011.87 1011.79 1011.60 1011.36 1011.33 1011.31 1011.34 1011.49 1011.65 1011.87 1012.20 1012.55 1012.90 1013.24 1013.52 1014.15 1014.51 1014.74 1014.98 1015.81 1016.25 1016.52 1016.37 1016.31 1016.51 1016.73 1016.84 1016.91
1015.76 1015.41 1015.02 1014.67 1014.14 1013.59 1013.04 1012.34 1011.71 1011.06 1010.78 1010.91 1011.21 1011.41 1011.47 1011.34 1011.25 1010.87 1010.75 1010.57 1010.49 1010.55 1010.61 1010.91 1011.30 1011.44 1011.79 1012.14 1012.44 1012.94 1013.45 1014.07 1014.38 1014.33 1014.72 1015.78 1015.87 1016.22 1016.02 1015.89 1016.03 1016.20 1016.40
1016.58 1016.34 1015.75 1015.00 1014.34 1013.33 1012.55 1011.86 1011.18 1010.45 1010.05 1010.12 1010.32 1010.67 1010.79 1010.63 1010.17 1010.27 1010.23 1010.07 1009.92 1009.90 1009.86 1009.98 1010.35 1010.76 1011.03 1011.34 1011.80 1012.24 1012.57 1013.21 1013.75 1014.31 1014.22 1014.19 1014.67 1015.28 1016.04 1015.58 1015.46 1015.60 1015.77
1017.34 1016.68 1015.86 1015.05 1014.10 1012.94 1011.90 1010.91 1010.24 1009.71 1009.26 1009.24 1009.54 1009.91 1009.96 1009.75 1009.55 1009.57 1009.41 1009.28 1009.22 1009.19 1009.24 1009.37 1009.54 1009.94 1010.19 1010.44 1010.96 1011.43 1011.90 1012.18 1012.93 1013.30 1013.79 1014.25 1014.23 1014.87 1015.11 1015.49 1015.00 1015.06 1014.90
1017.47 1016.88 1016.10 1015.18 1013.90 1012.42 1010.80 1009.83 1009.04 1008.79 1008.44 1008.55 1008.77 1008.97 1009.00 1009.12 1009.32 1009.06 1008.67 1008.27 1008.28 1008.34 1008.47 1008.63 1008.78 1009.12 1009.47 1009.69 1010.12 1010.63 1011.08 1011.39 1011.81 1012.38 1012.91 1013.20 1013.78 1013.85 1014.47 1014.96 1014.50 1014.54 1014.29
1017.34 1016.60 1015.78 1014.81 1013.48 1012.15 1011.10 1010.03 1008.56 1008.05 1007.83 1007.87 1007.89 1007.97 1008.02 1008.30 1008.35 1008.28 1008.19 1007.73 1007.33 1007.39 1007.44 1007.80 1008.09 1008.31 1008.76 1009.23 1009.60 1009.95 1010.69 1010.85 1011.22 1011.48 1012.07 1012.57 1012.77 1012.99 1013.68 1014.07 1014.39 1014.01 1013.80
1017.34 1016.60 1015.70 1014.74 1013.67 1012.57 1011.58 1010.63 1009.61 1008.12 1007.61 1007.47 1007.31 1007.11 1007.19 1007.42 1007.51 1007.51 1007.43 1007.07 1006.62 1006.36 1006.59 1007.11 1007.32 1007.72 1008.09 1008.44 1008.97 1009.43 1009.78 1010.43 1010.67 1010.91 1011.27 1011.58 1011.97 1012.50 1013.18 1013.33 1013.55 1013.82 1013.88
1016.83 1016.09 1015.40 1014.69 1013.84 1012.99 1012.11 1011.13 1010.04 1008.78 1007.51 1007.17 1006.77 1006.56 1006.49 1006.60 1006.64 1006.67 1006.71 1006.39 1005.82 1005.64 1005.82 1006.35 1006.63 1006.99 1007.49 1007.88 1008.30 1008.68 1009.15 1009.47 1009.95 1010.42 1010.68 1011.20 1011.37 1011.80 1012.30 1012.78 1012.94 1013.33 1013.36
1016.60 1016.09 1015.43 1014.68 1013.94 1013.24 1012.40 1011.49 1010.50 1009.43 1008.38 1007.18 1006.39 1006.09 1005.99 1005.90 1005.91 1006.02 1005.95 1005.71 1005.40 1005.26 1005.03 1005.55 1005.88 1006.26 1006.75 1007.18 1007.65 1008.04 1008.37 1008.82 1009.06 1009.58 1009.99 1010.36 1010.69 1011.15 1011.57 1011.87 1012.22 1012.49 1012.54
1016.66 1016.14 1015.41 1014.68 1013.98 1013.24 1012.35 1011.56 1010.82 1009.93 1008.96 1007.77 1006.82 1005.64 1005.32 1005.23 1005.25 1005.28 1005.13 1005.03 1004.90 1004.49 1004.65 1004.71 1005.17 1005.69 1006.09 1006.36 1006.81 1007.23 1007.70 1008.32 1008.60 1008.88 1009.10 1009.57 1009.99 1010.23 1010.71 1011.12 1011.25 1011.68 1011.97
1016.32 1015.78 1015.29 1014.70 1013.94 1013.29 1012.62 1011.86 1011.03 1010.31 1009.54 1008.40 1006.96 1006.14 1004.83 1004.50 1004.60 1004.58 1004.55 1004.57 1004.36 1004.27 1004.20 1004.20 1004.73 1005.19 1005.47 1005.80 1006.21 1006.67 1006.99 1007.60 1008.07 1008.37 1008.70 1008.92 1009.40 1009.55 1010.21 1010.08 1010.50 1010.54 1010.86
1015.76 1015.51 1015.14 1014.86 1014.27 1013.56 1012.80 1012.15 1011.26 1010.48 1009.74 1008.70 1007.79 1006.87 1006.01 1004.94 1004.18 1004.02 1003.94 1004.08 1004.32 1004.37 1004.31 1003.99 1004.33 1004.99 1005.25 1005.42 1005.69 1005.97 1006.35 1006.78 1007.20 1007.42 1007.85 1008.24 1008.66 1008.95 1009.35 1009.48 1009.87 1009.95 1010.07
1015.48 1015.37 1015.18 1014.92 1014.42 1013.92 1013.13 1012.50 1011.52 1010.86 1010.29 1009.63 1008.79 1007.64 1006.56 1005.69 1004.82 1004.14 1003.63 1003.61 1003.82 1004.12 1003.99 1003.88 1004.11 1004.33 1004.53 1004.80 1005.12 1005.47 1005.94 1006.22 1006.40 1006.60 1006.86 1007.27 1007.52 1007.82 1008.25 1008.51 1008.91 1009.30 1009.44
1015.28 1015.25 1015.12 1014.88 1014.33 1013.91 1013.12 1012.67 1012.36 1011.28 1010.82 1010.36 1009.35 1008.21 1007.01 1005.94 1004.92 1004.18 1003.63 1003.24 1003.37 1003.42 1003.43 1003.60 1003.78 1003.75 1003.95 1004.29 1004.79 1004.94 1005.38 1005.66 1005.83 1005.85 1006.03 1006.22 1006.45 1006.72 1007.00 1007.55 1008.01 1008.37 1008.64
1014.98 1015.02 1014.92 1014.71 1014.27 1013.96 1013.35 1012.87 1012.57 1012.04 1011.48 1010.87 1009.95 1008.66 1007.31 1006.02 1004.94 1004.30 1003.89 1003.86 1003.67 1003.85 1003.81 1004.01 1004.16 1004.21 1003.97 1003.99 1004.01 1004.30 1004.83 1005.10 1005.42 1005.62 1005.65 1005.55 1005.67 1005.94 1006.11 1006.48 1006.73 1006.95 1007.47
1014.54 1014.73 1014.83 1014.82 1014.55 1014.22 1013.75 1013.15 1012.81 1012.44 1011.81 1011.45 1010.40 1009.34 1008.06 1006.80 1005.51 1004.78 1004.67 1004.88 1005.01 1005.04 1005.18 1005.29 1005.25 1005.29 1005.21 1004.83 1004.44 1004.33 1004.25 1004.70 1005.08 1005.40 1005.56 1005.37 1005.35 1005.40 1005.47 1005.74 1005.84 1006.02 1006.14
1014.23 1014.52 1014.78 1014.81 1014.78 1014.61 1014.23 1013.70 1013.30 1012.81 1012.26 1011.64 1010.79 1009.93 1008.94 1007.88 1006.93 1006.23 1006.07 1006.07 1006.13 1006.35 1006.49 1006.53 1006.54 1006.31 1005.88 1004.82 1003.89 1003.84 1004.29 1004.85 1005.44 1005.71 1005.78 1006.15 1006.38 1006.03 1005.56 1005.19 1005.41 1005.55 1005.62
1013.98 1014.35 1014.54 1014.72 1014.74 1014.77 1014.50 1014.10 1013.89 1013.42 1012.75 1012.04 1011.45 1010.61 1009.78 1009.12 1008.37 1007.64 1007.45 1007.35 1007.20 1007.52 1007.51 1007.58 1007.40 1006.91 1006.37 1005.37 1003.77 1002.98 1003.91 1005.09 1005.91 1006.24 1006.54 1006.78 1006.70 1006.49 1005.90 1005.49 1005.34 1005.93 1006.33
1013.76 1014.12 1014.27 1014.39 1014.81 1014.87 1014.66 1014.31 1014.20 1013.88 1013.33 1012.71 1012.13 1011.52 1010.81 1010.14 1009.58 1009.27 1008.82 1008.74 1008.48 1008.77 1008.68 1008.43 1008.26 1007.91 1007.16 1006.45 1005.18 1004.35 1004.74 1005.41 1005.97 1006.91 1007.20 1006.94 1007.32 1006.92 1006.71 1006.38 1006.22 1006.54 1007.11
1013.70 1014.02 1014.26 1014.28 1014.48 1014.66 1014.71 1014.75 1014.44 1014.07 1013.59 1013.13 1012.61 1012.06 1011.44 1010.92 1010.50 1010.06 1009.51 1009.46 1009.42 1009.00 1009.38 1009.28 1009.05 1008.78 1008.51 1007.73 1006.82 1006.42 1006.56 1006.77 1007.18 1007.30 1007.70 1007.84 1007.52 1007.57 1007.59 1007.15 1007.21 1007.55 1007.73
1013.43 1013.77 1014.18 1014.48 1014.33 1014.41 1014.51 1014.67 1014.62 1014.16 1013.66 1013.26 1012.79 1012.40 1012.03 1011.60 1011.36 1011.03 1010.62 1010.22 1010.15 1010.11 1009.97 1009.93 1009.87 1009.82 1009.49 1008.83 1008.35 1008.00 1007.87 1008.02 1008.00 1008.02 1008.20 1008.06 1008.13 1008.13 1007.99 1008.03 1007.92 1007.78 1007.89
1012.86 1013.38 1013.81 1014.01 1014.18 1014.38 1014.47 1014.44 1014.17 1013.91 1013.73 1013.47 1013.23 1012.85 1012.43 1012.23 1012.08 1012.08 1011.81 1011.42 1011.20 1011.08 1011.08 1010.89 1010.74 1010.61 1010.35 1009.95 1009.47 1009.05 1008.73 1008.45 1008.18 1008.39 1008.63 1008.79 1008.90 1008.96 1008.99 1008.91 1008.78 1008.69 1008.72
1012.09 1012.68 1013.24 1013.59 1013.84 1013.95 1014.18 1014.44 1014.51 1014.09 1013.37 1013.34 1013.59 1013.47 1013.18 1012.95 1012.72 1012.64 1012.66 1012.53 1012.27 1012.01 1011.87 1011.77 1011.55 1011.44 1011.16 1010.87 1010.56 1010.17 1009.74 1009.40 1009.26 1009.39 1009.58 1009.78 1009.88 1009.76 1009.63 1009.43 1009.42 1009.53 1009.58
1011.34 1011.86 1012.38 1012.90 1013.29 1013.58 1013.84 1013.97 1014.01 1014.02 1014.00 1013.62 1013.26 1013.38 1013.55 1013.57 1013.63 1013.34 1013.24 1013.09 1012.93 1012.62 1012.42 1012.38 1012.21 1011.84 1011.62 1011.49 1011.34 1010.98 1010.55 1010.34 1010.38 1010.48 1010.57 1010.57 1010.50 1010.41 1010.37 1010.34 1010.28 1010.20 1010.03
1010.75 1011.30 1011.75 1012.27 1012.58 1012.78 1013.12 1013.43 1013.69 1013.87 1013.71 1013.51 1013.57 1013.69 1013.74 1013.57 1013.67 1013.85 1013.88 1013.63 1013.47 1013.24 1012.95 1012.85 1012.77 1012.77 1012.41 1012.12 1011.79 1011.52 1011.21 1011.07 1011.21 1011.28 1011.38 1011.48 1011.50 1011.51 1011.55 1011.41 1011.22 1011.02 1010.81
Thickness
5632 5636 5638 5638 5638 5640 5643 5646 5647 5646 5643 5642 5641 5640 5644 5644 5647 5650 5655 5658 5660 5662 5664 5666 5668 5670 5672 5677 5680 5679 5682 5683 5685 5678 5678 5679 5682 5683 5684 5683 5681 5681 5681
5613 5616 5619 5619 5620 5621 5622 5626 5630 5632 5632 5626 5623 5622 5626 5631 5632 5636 5640 5643 5646 5649 5651 5655 5659 5664 5666 5670 5672 5673 5672 5674 5675 5672 5669 5660 5668 5677 5680 5678 5678 5677 5676
5594 5596 5596 5596 5599 5600 5601 5606 5608 5612 5612 5608 5604 5602 5604 5610 5614 5623 5624 5628 5630 5634 5640 5644 5645 5652 5656 5657 5661 5662 5662 5660 5665 5669 5665 5653 5659 5665 5670 5675 5675 5675 5674
5572 5572 5573 5577 5580 5585 5588 5591 5594 5596 5595 5590 5588 5582 5580 5586 5597 5596 5599 5605 5610 5616 5620 5628 5632 5634 5644 5645 5649 5652 5655 5654 5654 5655 5661 5665 5664 5659 5656 5667 5671 5672 5671
5553 5556 5560 5566 5572 5579 5584 5589 5590 5588 5585 5581 5576 5568 5566 5567 5570 5567 5574 5582 5588 5595 5602 5608 5616 5620 5625 5638 5637 5642 5645 5649 5647 5649 5650 5653 5655 5652 5655 5653 5662 5664 5670
5544 5547 5552 5558 5565 5573 5583 5587 5590 5583 5578 5571 5563 5557 5553 5550 5545 5549 5553 5562 5567 5575 5581 5588 5595 5605 5612 5619 5629 5630 5634 5640 5643 5643 5646 5649 5648 5649 5647 5650 5655 5657 5662
5541 5543 5547 5552 5558 5565 5570 5575 5581 5577 5571 5563 5555 5549 5544 5537 5535 5536 5536 5543 5551 5557 5567 5572 5576 5587 5597 5601 5608 5617 5619 5628 5633 5638 5639 5642 5645 5647 5645 5644 5645 5652 5657
5535 5537 5542 5546 5549 5553 5555 5555 5557 5565 5559 5550 5544 5540 5534 5525 5520 5521 5522 5526 5533 5543 5551 5553 5559 5570 5582 5590 5595 5602 5611 5614 5621 5628 5631 5636 5640 5639 5638 5640 5641 5640 5643
5536 5538 5541 5540 5540 5540 5539 5538 5539 5547 5547 5539 5534 5529 5521 5514 5508 5503 5498 5502 5514 5525 5535 5538 5546 5558 5567 5577 5584 5591 5601 5607 5611 5616 5622 5624 5631 5634 5634 5633 5635 5633 5634
5535 5533 5534 5534 5533 5529 5528 5524 5524 5526 5527 5527 5526 5520 5510 5498 5486 5474 5470 5475 5487 5503 5519 5527 5536 5549 5558 5566 5574 5584 5593 5598 5606 5609 5614 5619 5623 5625 5627 5628 5628 5630 5632
5529 5529 5529 5528 5527 5524 5522 5517 5512 5513 5511 5511 5510 5512 5501 5486 5467 5454 5452 5457 5469 5487 5507 5520 5527 5537 5549 5560 5569 5579 5585 5588 5595 5601 5607 5612 5614 5618 5620 5621 5624 5623 5624
5529 5529 5527 5526 5523 5520 5516 5511 5505 5500 5497 5495 5496 5495 5497 5481 5464 5455 5452 5456 5468 5481 5497 5516 5524 5533 5543 5554 5564 5571 5578 5581 5586 5594 5597 5603 5605 5609 5610 5616 5617 5621 5621
5533 5529 5526 5521 5518 5516 5513 5507 5502 5495 5487 5482 5479 5481 5481 5477 5473 5466 5463 5464 5471 5481 5494 5514 5525 5527 5537 5549 5558 5566 5572 5578 5582 5588 5591 5595 5597 5600 5602 5606 5608 5612 5614
5534 5528 5523 5519 5515 5511 5509 5506 5502 5492 5480 5473 5465 5469 5474 5472 5472 5473 5477 5478 5483 5489 5500 5514 5523 5530 5539 5548 5555 5561 5566 5572 5578 5582 5587 5590 5594 5597 5597 5599 5602 5604 5607
5534 5528 5523 5518 5515 5510 5506 5502 5496 5489 5478 5469 5466 5465 5472 5475 5478 5484 5487 5494 5498 5504 5512 5519 5527 5536 5544 5549 5552 5559 5563 5569 5573 5578 5583 5588 5591 5593 5595 5596 5597 5597 5600
5536 5530 5526 5522 5519 5513 5509 5505 5496 5487 5480 5468 5469 5472 5476 5481 5488 5492 5498 5498 5503 5506 5513 5517 5524 5532 5541 5547 5553 5558 5561 5564 5567 5572 5576 5582 5586 5590 5593 5594 5596 5600 5598
5536 5532 5528 5522 5516 5512 5510 5509 5501 5493 5485 5475 5474 5476 5483 5489 5495 5499 5500 5500 5501 5505 5508 5512 5517 5521 5528 5537 5546 5552 5560 5562 5564 5565 5569 5577 5582 5586 5592 5594 5596 5597 5598
5536 5530 5524 5521 5516 5511 5507 5506 5501 5499 5493 5487 5485 5483 5485 5490 5495 5500 5501 5501 5502 5502 5502 5504 5507 5512 5519 5532 5544 5549 5551 5550 5550 5554 5559 5560 5564 5572 5581 5590 5592 5594 5596
5533 5526 5523 5520 5515 5510 5508 5506 5499 5498 5497 5494 5492 5494 5493 5490 5495 5498 5498 5499 5500 5497 5496 5497 5500 5506 5514 5526 5544 5554 5549 5542 5540 5543 5545 5548 5554 5559 5569 5576 5581 5577 5576
5529 5524 5523 5522 5513 5510 5509 5507 5503 5499 5498 5498 5497 5496 5497 5501 5498 5494 5500 5500 5502 5493 5492 5495 5496 5501 5511 5520 5533 5542 5540 5540 5540 5534 5536 5545 5546 5556 5558 5566 5567 5567 5564
5527 5523 5520 5519 5515 5512 5509 5506 5503 5502 5502 5501 5501 5501 5502 5503 5504 5506 5506 5503 5499 5500 5500 5500 5499 5499 5505 5517 5526 5531 5532 5533 5534 5537 5534 5538 5545 5547 5549 5555 5556 5554 5554
5531 5525 5517 5515 5515 5513 5509 5506 5503 5504 5504 5504 5504 5503 5503 5504 5503 5504 5506 5507 5507 5505 5505 5504 5503 5502 5506 5513 5518 5521 5524 5526 5529 5531 5532 5536 5538 5539 5542 5543 5545 5548 5547
5533 5527 5521 5518 5515 5511 5508 5506 5506 5506 5505 5504 5502 5503 5504 5502 5501 5499 5499 5501 5502 5502 5500 5501 5501 5501 5504 5507 5512 5516 5520 5524 5528 5528 5527 5527 5527 5528 5528 5529 5531 5532 5531
5537 5531 5524 5520 5517 5513 5510 5505 5503 5504 5507 5505 5500 5499 5498 5497 5498 5497 5495 5494 5494 5495 5496 5496 5496 5496 5498 5501 5503 5507 5510 5514 5516 5515 5514 5513 5512 5513 5514 5515 5515 5513 5511
5539 5533 5527 5522 5518 5513 5509 5506 5503 5500 5499 5501 5501 5498 5495 5492 5489 5490 5490 5489 5491 5491 5491 5490 5490 5492 5493 5494 5495 5498 5501 5502 5502 5500 5499 5499 5499 5499 5499 5497 5496 5494 5492
5539 5531 5525 5520 5517 5513 5509 5504 5500 5497 5498 5498 5496 5493 5491 5490 5488 5484 5481 5483 5483 5485 5486 5485 5484 5482 5484 5485 5486 5488 5489 5490 5488 5486 5484 5483 5482 5480 5478 5477 5476 5475 5473